Regional Weather Roundup
Issued by NWS

Home | Current Version | Previous Version | Graphics & Text | Print | Product List | Glossary On
Versions: 1 2 3 4 5 6 7 8 9 10 11 12 13 14 15 16 17 18 19 20 21 22 23 24 25 26 27 28 29 30 31 32 33 34 35 36 37 38 39 40 41 42 43 44 45 46 47 48 49 50
000
ASUS43 KBIS 302310
RWRND

NORTH DAKOTA REGIONAL WEATHER ROUNDUP
NATIONAL WEATHER SERVICE BISMARCK ND
600 PM CDT TUE SEP 30 2014

NOTE: "FAIR" INDICATES FEW OR NO CLOUDS BELOW 12,000 FEET WITH NO
SIGNIFICANT WEATHER AND/OR OBSTRUCTIONS TO VISIBILITY.


NDZ001>003-009>011-017-010000-
NORTHWEST NORTH DAKOTA

CITY           SKY/WX    TMP DP  RH WIND       PRES   REMARKS
WILLISTON      LGT RAIN  52  50  93 NE5       29.53F
MINOT          CLOUDY    51  49  92 E15       29.54F FOG
MINOT AFB      CLOUDY    50  50 100 E10       29.56F FOG
$$

NDZ018>021-031>035-040>046-010000-
SOUTHWEST NORTH DAKOTA

CITY           SKY/WX    TMP DP  RH WIND       PRES   REMARKS
BISMARCK       CLOUDY    55  53  93 E24G32    29.42F
DICKINSON      CLOUDY    52  51  97 N10       29.46F
GARRISON         N/A     51  50  96 E15G23    29.50F
HETTINGER ARPT CLOUDY    55  53  93 NW9       29.45S
$$

NDZ004>008-012>016-024-026-027-054-010000-
NORTHEAST NORTH DAKOTA

CITY           SKY/WX    TMP DP  RH WIND       PRES   REMARKS
GRAND FORKS    CLOUDY    59  48  67 SE16      29.67F
GRND FRKS AFB  CLOUDY    55  54  94 SE8       29.68S
DEVILS LAKE    CLOUDY    55  45  67 SE24G31   29.61S
$$

NDZ022-023-025-028>030-036>039-047>053-010000-
SOUTHEAST NORTH DAKOTA

CITY           SKY/WX    TMP DP  RH WIND       PRES   REMARKS
FARGO          CLOUDY    59  49  69 SE14G23   29.67S
JAMESTOWN      CLOUDY    52  48  86 E23G31    29.55F
$$




USA.gov is the U.S. government's official web portal to all federal, state and local government web resources and services.